Home   Weather   Lahti   Past weeks
Flag for Finland

Past Weather in Lahti, Finland — Yesterday and Last 2 Weeks

Now
39 °F

Overcast.


Feels Like: 35 °F
Forecast: 50 / 35 °F
Wind: 6 mph from Northwest

Location: Utti

Current Time: Oct 21, 2019 at 6:19:01 pm

Latest Report: Oct 21, 2019 at 5:20 pm


Visibility: N/A

Pressure: 30.09 "Hg

Humidity: 87%

Dew Point: 36 °F

Location of LahtiLocation

Past Weather in Lahti — Graph

°F

Lahti Temperature Yesterday

Maximum temperature yesterday: 48 °F (at 12:20 am)
Minimum temperature yesterday: 41 °F (at 12:20 pm)
Average temperature yesterday: 44 °F

High & Low Weather Summary for the Past Weeks

 TemperatureHumidityPressure
High52 °F (Oct 11, 3:20 pm)100% (Oct 6, 10:20 pm)30.21 "Hg (Oct 6, 10:20 pm)
Low25 °F (Oct 9, 8:20 am)66% (Oct 8, 3:20 pm)29.06 "Hg (Oct 12, 8:20 am)
Average40 °F93%29.75 "Hg
* Reported Oct 6 4:20 pm — Oct 21 4:50 pm, Lahti. Weather by CustomWeather, © 2019

Note: Actual official high and low records may vary slightly from our data, if they occured in-between our weather recording intervals... More about our weather records

Advertising

Lahti Weather History for the Previous 24 Hours

Scroll right to see more
 ConditionsComfort  
Time TempWeatherWind HumidityBarometerVisibility
4:50 pm
Mon, Oct 21
39 °FOvercast.6 mph81%30.07 "HgN/A
4:20 pm39 °FOvercast.7 mph81%30.07 "HgN/A
3:50 pm39 °FPartly sunny.6 mph81%30.07 "HgN/A
3:20 pm39 °FSprinkles. Partly sunny.6 mph87%30.07 "HgN/A
2:50 pm39 °FSprinkles. Partly sunny.6 mph87%30.07 "HgN/A
2:20 pm39 °FSprinkles. Partly sunny.6 mph87%30.04 "HgN/A
1:50 pm37 °FSprinkles. Partly sunny.7 mph93%30.01 "HgN/A
1:20 pm39 °FSprinkles. Partly sunny.7 mph87%30.01 "HgN/A
12:50 pm39 °FPartly sunny.9 mph87%30.01 "HgN/A
12:20 pm39 °FPartly sunny.9 mph93%29.98 "HgN/A
11:50 am39 °FPartly sunny.8 mph93%29.98 "HgN/A
11:20 am39 °FDrizzle. Partly sunny.7 mph93%29.95 "HgN/A
10:50 am39 °FPartly sunny.12 mph93%29.95 "HgN/A
10:20 am39 °FDrizzle. Partly sunny.9 mph93%29.92 "HgN/A
9:50 am39 °FDrizzle. Partly sunny.9 mph93%29.89 "HgN/A
9:20 am39 °FPartly sunny.8 mph93%29.89 "HgN/A
8:50 am39 °FDrizzle. Low clouds.10 mph100%29.86 "Hg5 mi
8:20 am39 °FDrizzle. Low clouds.9 mph100%29.86 "HgN/A
7:50 am41 °FDrizzle. Low clouds.8 mph100%29.83 "Hg3 mi
7:20 am41 °FDrizzle. Low clouds.7 mph100%29.80 "Hg5 mi
6:50 am43 °FDrizzle. Low clouds.7 mph100%29.80 "Hg5 mi
6:20 am46 °FDrizzle. Low clouds.7 mph100%29.77 "Hg4 mi
5:50 am46 °FLow clouds.3 mph100%29.77 "HgN/A
5:20 am45 °FDense fog.2 mph100%29.77 "Hg1 mi
4:50 am45 °FFog.2 mph100%29.77 "Hg1 mi
4:20 am43 °FSprinkles. Dense fog.5 mph100%29.77 "Hg1 mi
3:50 am43 °FSprinkles. Dense fog.5 mph100%29.77 "Hg1 mi
2:50 am43 °FSprinkles. Low clouds.3 mph100%29.77 "Hg4 mi
2:20 am43 °FSprinkles. Low clouds.3 mph100%29.77 "HgN/A
1:50 am45 °FSprinkles. Low clouds.6 mph93%29.77 "Hg4 mi
1:20 am43 °FLight rain. Low clouds.8 mph100%29.80 "HgN/A
12:50 am43 °FLight rain. Low clouds.7 mph100%29.80 "HgN/A
12:20 am45 °FSprinkles. Low clouds.6 mph93%29.83 "HgN/A
11:50 pm
Sun, Oct 20
43 °FRain showers. Low clouds.7 mph100%29.83 "HgN/A
11:20 pm43 °FRain showers. Low clouds.10 mph100%29.83 "HgN/A
10:50 pm43 °FLight rain. Low clouds.12 mph100%29.86 "HgN/A
10:20 pm43 °FRain. Low clouds.12 mph100%29.86 "HgN/A
9:50 pm43 °FSprinkles. Low clouds.10 mph93%29.89 "HgN/A
9:20 pm41 °FRain showers. Low clouds.10 mph100%29.89 "HgN/A
8:50 pm41 °FRain showers. Low clouds.12 mph100%29.92 "HgN/A
8:20 pm41 °FRain. Low clouds.13 mph100%29.92 "HgN/A
7:50 pm41 °FLight rain. Low clouds.12 mph100%29.95 "HgN/A
7:20 pm41 °FLight rain. Overcast.13 mph100%29.95 "HgN/A
6:50 pm41 °FLight rain. Overcast.10 mph100%29.98 "HgN/A
6:20 pm41 °FLight rain. Overcast.9 mph93%29.98 "HgN/A
Weather by CustomWeather, © 2019

See weather overview